Regional Weather Roundup
Issued by NWS

Home | Current Version | Previous Version | Text Only | Print | Product List | Glossary Off
Versions: 1 2 3 4 5 6 7 8 9 10 11 12 13 14 15 16 17 18 19 20 21 22 23 24 25 26 27 28 29 30 31 32 33 34 35 36 37 38 39 40 41 42 43 44 45 46 47 48 49 50

000
ASUS45 KBOU 251107
RWRCO

WEATHER ROUNDUP FOR COLORADO
NATIONAL WEATHER SERVICE DENVER/BOULDER CO
400 AM MST TUE NOV 25 2014

NOTE: "FAIR" INDICATES FEW OR NO CLOUDS BELOW 12000 FEET WITH NO
SIGNIFICANT WEATHER AND/OR OBSTRUCTIONS TO VISIBILITY.

COZ001>005-013-030-031-251200-
...NORTHWEST COLORADO...

CITY           SKY/WX    TMP DP  RH WIND       PRES   REMARKS
CRAIG          CLOUDY    13   7  77 CALM      30.29F
HAYDEN         CLOUDY    16   9  73 E7        30.26F WCI   6
MEEKER         CLOUDY    11   6  81 CALM      30.32F
MOUNT WERNER   NOT AVBL
STEAMBOAT SPGS CLOUDY    10   8  89 CALM      30.26F
WALDEN         CLOUDY    18   9  68 S13       30.13F WCI   4
$$

COZ006>008-011-251200-
...WEST CENTRAL VALLEYS...

CITY           SKY/WX    TMP DP  RH WIND       PRES   REMARKS
GRAND JUNCTION MOCLDY    24  15  68 SE14      30.39S WCI  12
MONTROSE       PTCLDY    17  10  74 SE9       30.41F WCI   6
EAGLE          CLOUDY    12  10  92 SE3       30.35F
RIFLE          CLOUDY    13  10  88 SE3       30.39F
DELTA          PTCLDY    21  15  76 NE6       30.43S WCI  14
NUCLA          PTCLDY    21  10  63 E9        30.43F WCI  11
$$

COZ017>023-064>068-251200-
...SOUTHWEST COLORADO...

CITY           SKY/WX    TMP DP  RH WIND       PRES   REMARKS
DURANGO        CLEAR     13   7  77 E3        30.34S
CORTEZ         CLEAR     11   6  81 E6        30.41S WCI   1
PAGOSA SPRINGS CLEAR     10   3  73 CALM      30.32F
TELLURIDE      NOT AVBL
WOLF CREEK PAS MOCLDY     5 -15  39 MISG      30.20F
$$

COZ009-010-012-014-032>034-037-058>063-251200-
...CENTRAL COLORADO...

CITY           SKY/WX    TMP DP  RH WIND       PRES   REMARKS
ASPEN          CLOUDY    15   8  73 S3        30.30F
BUENA VISTA    MOCLDY    11   4  73 CALM      30.19F
COPPER MTN     CLOUDY     7   0  72 MISG      30.13F
BERTHOUD PASS  NOT AVBL
COTTONWOOD PAS MOCLDY    19  -4  35 W15G33    30.12F WCI   5
GUNNISON       CLOUDY     1  -4  78 CALM      30.36F
KREMMLING      CLOUDY    19  10  68 W9        30.26F WCI   9
LEADVILLE      CLOUDY    10   3  73 N9        30.21F WCI  -3
MONARCH PASS   CLOUDY     1  -4  78 MISG      30.16F
SALIDA         MOCLDY    21   4  47 N3        30.26F
SUNLIGHT         N/A    N/A N/A N/A CALM      30.22F
WILKERSON PASS NOT AVBL
$$

COZ069>075-251200-
...SAN LUIS VALLEY/SANGRE DE CRISTO MOUNTAINS...

CITY           SKY/WX    TMP DP  RH WIND       PRES   REMARKS
ALAMOSA        MOCLDY     2  -4  76 W5        30.30S WCI  -8
LA VETA PASS   PTCLDY     9   1  72 MISG      30.12S
SAGUACHE       NOT AVBL
$$

COZ035-036-038>040-251200-
...NORTHERN COLORADO FRONT RANGE...

CITY           SKY/WX    TMP DP  RH WIND       PRES   REMARKS
DENVER INTL AP PTCLDY    25   8  48 S13       30.08F WCI  14
DMNS CITY PARK   N/A     25   6  45 SE8       30.10S WCI  16
AURORA         PTCLDY    21   8  57 S9        30.10F WCI  11
FRONT RANGE AP CLEAR     28  12  50 S18       30.10F WCI  16
ERIE MUNI ARPT PTCLDY    29   7  40 S6        30.08F WCI  22
BOULDER MUN AP PTCLDY    34   5  29 CALM      30.05F
CENTENNIAL     PTCLDY    23   6  48 S10       30.09F WCI  12
BROOMFIELD     PTCLDY    34   3  27 W21G26    30.08F WCI  22
FORT COLLINS   PTCLDY    18  10  73 CALM      30.08F
LONGMONT       PTCLDY    22  14  71 CALM      30.08F
$$

COZ041-046-047-076>085-087-088-251200-
...PIKES PEAK/PALMER DIVIDE AND SOUTHERN FOOTHILLS...

CITY           SKY/WX    TMP DP  RH WIND       PRES   REMARKS
COLO. SPRINGS  PTCLDY    18   7  62 CALM      30.14F
A. F. ACADEMY  CLEAR     15   2  55 E5        30.12F WCI   8
ELLICOTT       NOT AVBL
FALCON         NOT AVBL
FORT CARSON    CLEAR     17   8  69 E2        30.13F
LIMON          CLEAR      6   3  87 N5        30.15F WCI  -3
MONUMENT HILL  PTCLDY    14   3  62 SW8       30.09F WCI   3
TRINIDAD       CLEAR     20  11  68 W15       30.20F WCI   6
$$

COZ042>045-048>051-090-091-251200-
...NORTHEAST COLORADO...

CITY           SKY/WX    TMP DP  RH WIND       PRES   REMARKS
GREELEY ARPT   PTCLDY    16   7  67 CALM      30.10F
AKRON          PTCLDY    20  13  74 SW12      30.11F WCI   8
BURLINGTON     CLEAR     17  11  77 W8        30.16F WCI   7
WRAY           MOCLDY    21  17  84 W10       30.15S WCI  10
STERLING       PTCLDY    19  18  93 S7        30.11F WCI  10
HOLYOKE        CLEAR     21  18  86 W10       30.13F WCI  10
FORT MORGAN    PTCLDY    17  12  80 SW6       30.11F WCI   8
$$

COZ086-089-092>099-251200-
...SOUTHEAST COLORADO...

CITY           SKY/WX    TMP DP  RH WIND       PRES   REMARKS
PUEBLO         CLEAR     18  12  77 CALM      30.18F
LA JUNTA       CLEAR     26  18  71 SW10      30.21F WCI  16
LAMAR          CLEAR     23  18  81 SW8       30.21F WCI  14
SPRINGFIELD      N/A     19  16  88 W7        30.22F WCI  10
$$



USA.gov is the U.S. government's official web portal to all federal, state and local government web resources and services.